Home   Weather   Cabo Colorado   Past weeks
Flag for Spain

Past Weather in Cabo Colorado, Las Palmas, Spain — Yesterday and Last 2 Weeks

Currently: 73 °F. Passing clouds. (Weather station: Las Palmas De Gran Canaria / Gando, Spain). See more current weather

Past Weather in Cabo Colorado — Graph

°F

Cabo Colorado Temperature Yesterday

Maximum temperature yesterday: 77 °F (at 1:00 pm)
Minimum temperature yesterday: 68 °F (at 6:30 am)
Average temperature yesterday: 72 °F

High & Low Weather Summary for the Past Weeks

 TemperatureHumidityPressure
High81 °F (Jun 10, 1:00 pm)88% (Jun 9, 5:30 am)30.21 "Hg (Jun 9, 5:30 am)
Low66 °F (Jun 11, 9:00 am)47% (Jun 11, 5:30 pm)29.98 "Hg (Jun 9, 6:30 pm)
Average72 °F64%30.08 "Hg
* Reported Jun 8 9:00 am — Jun 23 9:30 am, Cabo Colorado. Weather by CustomWeather, © 2024

Note: Actual official high and low records may vary slightly from our data, if they occured in-between our weather recording intervals... More about our weather records

Cabo Colorado Weather History for the Previous 24 Hours

Scroll right to see more
 ConditionsComfort  
Time TempWeatherWind HumidityBarometerVisibility
9:30 am
Sun, Jun 23
72 °FPassing clouds.25 mph69%29.98 "HgN/A
9:00 am72 °FPassing clouds.22 mph69%29.98 "HgN/A
8:30 am72 °FPassing clouds.22 mph69%29.98 "HgN/A
8:00 am70 °FPassing clouds.18 mph69%29.98 "HgN/A
7:30 am70 °FPassing clouds.21 mph69%29.98 "HgN/A
7:00 am70 °FPassing clouds.20 mph69%29.98 "HgN/A
6:30 am68 °FPassing clouds.22 mph73%29.98 "HgN/A
6:00 am70 °FPassing clouds.20 mph69%29.98 "HgN/A
5:30 am70 °FPassing clouds.22 mph69%29.98 "HgN/A
5:00 am68 °FPassing clouds.18 mph69%29.98 "HgN/A
4:30 am68 °FPassing clouds.20 mph69%30.01 "HgN/A
4:00 am68 °FPassing clouds.20 mph73%30.01 "HgN/A
3:30 am68 °FPassing clouds.18 mph73%30.01 "HgN/A
3:00 am68 °FPassing clouds.21 mph73%30.01 "HgN/A
2:30 am68 °FPassing clouds.22 mph73%30.01 "HgN/A
2:00 am70 °FPassing clouds.23 mph69%30.01 "HgN/A
1:30 am68 °FPassing clouds.23 mph73%30.04 "HgN/A
1:00 am68 °FPassing clouds.24 mph73%30.04 "HgN/A
12:30 am70 °FPassing clouds.23 mph64%30.04 "HgN/A
12:00 am70 °FPassing clouds.22 mph69%30.04 "HgN/A
11:30 pm
Sat, Jun 22
70 °FPassing clouds.20 mph69%30.04 "HgN/A
11:00 pm70 °FPassing clouds.21 mph64%30.04 "HgN/A
10:30 pm70 °FPassing clouds.24 mph69%30.04 "HgN/A
10:00 pm70 °FPassing clouds.23 mph69%30.04 "HgN/A
9:30 pm70 °FPassing clouds.25 mph64%30.01 "HgN/A
9:00 pm70 °FPassing clouds.26 mph64%30.01 "HgN/A
8:30 pm72 °FPassing clouds.31 mph61%30.01 "HgN/A
8:00 pm72 °FPassing clouds.25 mph61%30.01 "HgN/A
7:30 pm73 °FPassing clouds.24 mph57%30.01 "HgN/A
7:00 pm73 °FPassing clouds.26 mph57%30.01 "HgN/A
6:30 pm73 °FPassing clouds.30 mph57%30.01 "HgN/A
6:00 pm75 °FPassing clouds.32 mph54%30.04 "HgN/A
5:30 pm75 °FPassing clouds.31 mph57%30.04 "HgN/A
5:00 pm75 °FPassing clouds.32 mph61%30.04 "HgN/A
4:30 pm77 °FPassing clouds.31 mph51%30.07 "HgN/A
4:00 pm77 °FPassing clouds.33 mph51%30.07 "HgN/A
3:30 pm77 °FPassing clouds.30 mph51%30.07 "HgN/A
3:00 pm77 °FScattered clouds.33 mph54%30.07 "HgN/A
2:30 pm77 °FPassing clouds.29 mph51%30.09 "HgN/A
2:00 pm77 °FPassing clouds.29 mph54%30.09 "HgN/A
1:30 pm75 °FScattered clouds.31 mph57%30.09 "HgN/A
1:00 pm77 °FScattered clouds.29 mph54%30.09 "HgN/A
12:30 pm75 °FScattered clouds.28 mph54%30.09 "HgN/A
12:00 pm75 °FScattered clouds.32 mph50%30.12 "HgN/A
11:30 am75 °FScattered clouds.31 mph54%30.12 "HgN/A
11:00 am73 °FPartly sunny.29 mph61%30.12 "HgN/A
10:30 am72 °FPartly sunny.25 mph57%30.12 "HgN/A
10:00 am73 °FScattered clouds.28 mph57%30.09 "HgN/A
Weather by CustomWeather, © 2024

See weather overview